Location: Hylvaty SDH
(49.9612°N, 16.4057°E)
Time: 12:39:00
(UTC+01:00)

A-11 Canister half - Pass Details

Date: 07 October 2020
Orbit: 1526 x 1683 km, 47.3° (Epoch: 28 October)

Event Time Altitude Azimuth Distance (km) Brightness Sun altitude
Rises 02:17:05 0° 284° (WNW) 4,691 - -41.4°
Reaches altitude 10° 02:20:11 10° 280° (W) 3,717 - -41.1°
Maximum altitude 02:29:14 56° 206° (SSW) 1,822 - -40.3°
Exits shadow 02:37:48 13° 133° (SE) 3,591 10.8 -39.4°
Drops below altitude 10° 02:38:32 10° 132° (SE) 3,814 11.0 -39.4°
Sets 02:41:45 0° 128° (SE) 4,820 11.6 -39.0°
